Athens Eleftherios, Greece

10:17 PM EEST on April 25, 2017 (GMT +0300)
Eleftherios Venizelos International

Weather History for LGAV - October, 2012

Change the Weather History Date:

Sunday, October 21, 2012

  Actual Average (LGAT) Record (LGAT)
Temperature  
Mean Temperature 66 °F -  
Max Temperature 71 °F 70 °F 80 °F (2015)
Min Temperature 62 °F 57 °F 46 °F (1997)
Cooling Degree Days 2    
Growing Degree Days 16 (Base 50)    
Moisture  
Dew Point 50 °F    
Average Humidity 56    
Maximum Humidity 72    
Minimum Humidity 41    
Precipitation  
Precipitation 0.00 in - - ()
Sea Level Pressure  
Sea Level Pressure 30.03 in    
Wind  
Wind Speed 8 mph ()    
Max Wind Speed 20 mph    
Max Gust Speed -    
Visibility 6.2 miles    
Events Rain    
Averages and records for this station are not official NWS values.
T = Trace of Precipitation, MM = Missing Value Source: Averaged Metar Reports

Daily Weather History Graph

Daily Weather History Graph

Search for Another Location

Airport or City:

Trip Planner

Search our weather history database for the weather conditions in past years. The results will help you decide how hot, cold, wet, or windy it might be!

Date:

Astronomy

Oct. 21, 2012 Rise Set
Actual Time 7:38 AM EEST 6:38 PM EEST
Civil Twilight 7:12 AM EEST 7:05 PM EEST
Nautical Twilight 6:41 AM EEST 7:35 PM EEST
Astronomical Twilight 6:10 AM EEST 8:06 PM EEST
Moon 1:44 PM EEST (10/21) No Moon Set
Length of Visible Light 11h 52m
Length of Day
10h 59m
Waxing Crescent, 41% of the Moon is Illuminated
Oct 21
Waxing Crescent
Oct 22
First Quarter
Oct 29
Full
Nov 7
Last Quarter
Nov 14
New

Hourly Weather History & Observations

Time (EEST) Temp. Dew Point Humidity Pressure Visibility Wind Dir Wind Speed Gust Speed Precip Events Conditions
12:20 AM 66.2 °F 48.2 °F 52% 30.04 in - NNW 12.7 mph - N/A   Clear
12:50 AM 66.2 °F 48.2 °F 52% 30.04 in - NE 4.6 mph - N/A   Clear
1:20 AM 66.2 °F 50.0 °F 56% 30.04 in - North 4.6 mph - N/A   Clear
1:50 AM 66.2 °F 50.0 °F 56% 30.04 in 6.2 mi North 5.8 mph - N/A   Partly Cloudy
2:20 AM 64.4 °F 50.0 °F 59% 30.04 in 6.2 mi NNW 6.9 mph - N/A   Partly Cloudy
2:50 AM 64.4 °F 50.0 °F 59% 30.04 in 6.2 mi NNW 5.8 mph - N/A   Partly Cloudy
3:20 AM 64.4 °F 50.0 °F 59% 30.04 in 6.2 mi NNW 5.8 mph - N/A   Partly Cloudy
3:50 AM 64.4 °F 50.0 °F 59% 30.04 in - Variable 3.5 mph - N/A   Clear
4:20 AM 64.4 °F 50.0 °F 59% 30.04 in - North 6.9 mph - N/A   Clear
4:50 AM 64.4 °F 50.0 °F 59% 30.04 in 6.2 mi North 4.6 mph - N/A   Partly Cloudy
5:20 AM 66.2 °F 50.0 °F 56% 30.04 in 6.2 mi Variable 1.2 mph - N/A   Mostly Cloudy
5:50 AM 66.2 °F 50.0 °F 56% 30.04 in 6.2 mi North 8.1 mph - N/A   Mostly Cloudy
6:20 AM 66.2 °F 51.8 °F 60% 30.04 in 6.2 mi North 5.8 mph - N/A   Mostly Cloudy
6:50 AM 66.2 °F 51.8 °F 60% 30.04 in 6.2 mi NNE 4.6 mph - N/A   Partly Cloudy
7:20 AM 64.4 °F 50.0 °F 59% 30.01 in 6.2 mi NE 5.8 mph - N/A   Scattered Clouds
7:50 AM 64.4 °F 50.0 °F 59% 30.04 in 6.2 mi Variable 3.5 mph - N/A   Scattered Clouds
8:20 AM 64.4 °F 50.0 °F 59% 30.04 in 6.2 mi Variable 3.5 mph - N/A   Scattered Clouds
8:50 AM 66.2 °F 50.0 °F 56% 30.04 in 6.2 mi Variable 2.3 mph - N/A   Scattered Clouds
9:20 AM 66.2 °F 50.0 °F 56% 30.04 in 6.2 mi North 12.7 mph - N/A   Scattered Clouds
9:50 AM 68.0 °F 50.0 °F 52% 30.04 in 6.2 mi North 12.7 mph - N/A   Scattered Clouds
10:20 AM 69.8 °F 50.0 °F 49% 30.04 in 6.2 mi North 11.5 mph - N/A   Scattered Clouds
10:50 AM 69.8 °F 50.0 °F 49% 30.04 in 6.2 mi NNE 15.0 mph - N/A   Mostly Cloudy
11:20 AM 71.6 °F 48.2 °F 43% 30.04 in 6.2 mi North 13.8 mph - N/A   Scattered Clouds
11:50 AM 71.6 °F 46.4 °F 41% 30.04 in 6.2 mi North 16.1 mph - N/A   Mostly Cloudy
12:20 PM 71.6 °F 48.2 °F 43% 30.04 in 6.2 mi North 11.5 mph - N/A   Mostly Cloudy
12:50 PM 71.6 °F 48.2 °F 43% 30.04 in 6.2 mi NNE 19.6 mph - N/A   Mostly Cloudy
1:20 PM 71.6 °F 48.2 °F 43% 30.01 in 6.2 mi North 16.1 mph - N/A   Scattered Clouds
1:50 PM 68.0 °F 51.8 °F 56% 30.01 in 6.2 mi North 16.1 mph - N/A   Mostly Cloudy
2:20 PM 68.0 °F 51.8 °F 56% 30.01 in 6.2 mi NNE 16.1 mph - N/A   Mostly Cloudy
2:50 PM 68.0 °F 50.0 °F 52% 30.01 in 6.2 mi North 11.5 mph - N/A   Mostly Cloudy
3:20 PM 68.0 °F 50.0 °F 52% 30.01 in 6.2 mi North 16.1 mph - N/A   Mostly Cloudy
3:50 PM 69.8 °F 50.0 °F 49% 30.01 in 6.2 mi North 16.1 mph - N/A   Mostly Cloudy
4:20 PM 69.8 °F 48.2 °F 46% 30.01 in 6.2 mi North 16.1 mph - N/A   Mostly Cloudy
4:50 PM 69.8 °F 48.2 °F 46% 30.01 in 6.2 mi North 15.0 mph - N/A   Mostly Cloudy
5:20 PM 66.2 °F 53.6 °F 64% 30.01 in 6.2 mi North 17.3 mph - N/A Rain Light Rain
5:50 PM 66.2 °F 51.8 °F 60% 30.01 in 6.2 mi North 11.5 mph - N/A   Mostly Cloudy
6:20 PM 66.2 °F 50.0 °F 56% 30.01 in 6.2 mi NNE 11.5 mph - N/A   Mostly Cloudy
6:50 PM 66.2 °F 53.6 °F 64% 30.01 in 6.2 mi North 11.5 mph - N/A Rain Light Rain
7:20 PM 62.6 °F 53.6 °F 72% 30.01 in 6.2 mi North 12.7 mph - N/A   Mostly Cloudy
7:50 PM 64.4 °F 53.6 °F 68% 30.01 in 6.2 mi NNW 9.2 mph - N/A   Mostly Cloudy
8:20 PM 64.4 °F 53.6 °F 68% 30.01 in 6.2 mi North 11.5 mph - N/A   Mostly Cloudy
8:50 PM 64.4 °F 51.8 °F 64% 30.01 in 6.2 mi NW 5.8 mph - N/A   Mostly Cloudy
9:20 PM 62.6 °F 51.8 °F 68% 30.01 in 6.2 mi NW 5.8 mph - N/A   Scattered Clouds
9:50 PM 62.6 °F 51.8 °F 68% 30.01 in 6.2 mi NW 3.5 mph - N/A   Scattered Clouds
10:20 PM 62.6 °F 50.0 °F 63% 30.01 in 6.2 mi NW 4.6 mph - N/A   Partly Cloudy
10:50 PM 64.4 °F 50.0 °F 59% 30.01 in 6.2 mi WNW 5.8 mph - N/A   Partly Cloudy
11:20 PM 62.6 °F 48.2 °F 59% 30.01 in 6.2 mi WNW 4.6 mph - N/A   Partly Cloudy
11:50 PM 62.6 °F 50.0 °F 63% 30.01 in 6.2 mi WNW 5.8 mph - N/A   Scattered Clouds